This is the latest recevied weather packets stored in our database for station/object N7WSS. If no packets are shown the sender has not sent any weather packets the latest 10 day(s).
| Time | Temp. | Humidity | Pressure | Rain* | Wind** | Luminosity | Snow |
|---|---|---|---|---|---|---|---|
| 1777397848 | 24.44° C | 21% | 1014.9 hPa | 0 mm | - | - | - |
| 1777397549 | 24.44° C | 22% | 1015 hPa | 0 mm | - | - | - |
| 1777397245 | 24.44° C | 22% | 1015.1 hPa | 0 mm | - | - | - |
| 1777396942 | 25° C | 23% | 1015.1 hPa | 0 mm | - | - | - |
| 1777396639 | 24.44° C | 23% | 1015.1 hPa | 0 mm | - | - | - |
| 1777396336 | 23.33° C | 25% | 1015.4 hPa | 0 mm | - | - | - |
| 1777396033 | 23.89° C | 25% | 1015.1 hPa | 0 mm | - | - | - |
| 1777395727 | 23.89° C | 25% | 1015.2 hPa | 0 mm | - | - | - |
| 1777395423 | 22.78° C | 27% | 1015.1 hPa | 0 mm | - | - | - |
| 1777395121 | 23.33° C | 26% | 1015.3 hPa | 0 mm | - | - | - |
| 1777394818 | 24.44° C | 26% | 1015.2 hPa | 0 mm | - | - | - |
| 1777394514 | 23.33° C | 26% | 1015.2 hPa | 0 mm | - | - | - |
| 1777394211 | 22.78° C | 27% | 1014.9 hPa | 0 mm | - | - | - |
| 1777393906 | 22.22° C | 28% | 1015.2 hPa | 0 mm | - | - | - |
| 1777393606 | 22.22° C | 28% | 1015.2 hPa | 0 mm | - | - | - |
| 1777393301 | 22.78° C | 27% | 1015.2 hPa | 0 mm | - | - | - |
| 1777392998 | 23.33° C | 26% | 1015.2 hPa | 0 mm | - | - | - |
| 1777392693 | 23.33° C | 26% | 1015.2 hPa | 0 mm | - | - | - |
| 1777392391 | 22.78° C | 26% | 1015.2 hPa | 0 mm | - | - | - |
| 1777392086 | 22.22° C | 26% | 1015.2 hPa | 0 mm | - | - | - |
| 1777391781 | 21.67° C | 27% | 1015.2 hPa | 0 mm | - | - | - |
| 1777391477 | 21.67° C | 27% | 1015 hPa | 0 mm | - | - | - |
| 1777391173 | 21.67° C | 26% | 1015.1 hPa | 0 mm | - | - | - |
| 1777390869 | 21.67° C | 26% | 1015.2 hPa | 0 mm | - | - | - |
| 1777390567 | 21.67° C | 27% | 1015 hPa | 0 mm | - | - | - |
* Rain latest hour (hover to see other rain measurements)
** Current wind speed in m/s (hover to see current wind gust speed)